GOES 17

Last updated on Wed Oct 22 2025 00:02:22 GMT+0000 (Coordinated Universal Time)

1 43226U 18022A 25294.53293992 -.00000175 00000+0 00000+0 0 9996 2 43226 0.3203 90.3134 0002898 163.6866 238.5924 1.00271005 28032
UTC large
Height (km)
Speed (km/s)
/
Latitude / Longitude
Inclination (degrees)
Orbital Period (minutes)
Azimuth
Elevation
Range (km)
Doppler Factor

Next 0 passes for location: London (51.5072 / 0.1276)

Sorry there are no passes over London.